STARLINK-32175, 60339

Orbit data source: Space-Track

STARLINK-32175, 60339 is a payload satellite owned by SpaceX/Seattle (US) in LEO that was launched on Fri, 02 Aug 2024 UTC via an FALCON 9 launch vehicle from the Air Force Eastern Test Range (AFETR). Payload-class satellites include a variety of spacecraft equipped with specific instruments for various scientific and technological missions. These include communications satellites like Starlink; space stations such as the ISS; scientific satellites like the Hubble; Earth observation satellites from companies like Planet Labs, Umbra, and HawkEye 360; GPS; miniature CubeSats for education and research; and military/defense satellites.

Loading next visibility...
Identifier
60339, 2024-136L
Orbit
LEO
Last TLE update
1 day ago
Origin
Manufacturer
SpaceX/Seattle
Mission
Operational Commercial Communications
Bus & Motor
STARLINK V2M, Unknown motor
Mass
730 kg wet, ~700 kg dry
Launch date (UTC)
2024-08-02 (9 months ago)
Launch vehicle
FALCON 9
Launch site
Air Force Eastern Test Range (AFETR)
Object type
Payload
Rocket body
Debris
Shape & HBR
Box + 2 Pan, 29 m
Radar Cross Section
33.884 m², Large (>1 m²)

Expand to show TLE details & history

TLE from 1 day ago
0 STARLINK-32175
1 60339U 24136L   25128.20930983  .00002458  00000-0  95149-4 0  9990
2 60339  53.1612  54.6266 0001406  92.6467 267.4695 15.30176752 44065
Epoch: 2025-05-08T05:01Z
Definitive object data (Epoch: 2025-05-08T05:01:24.369Z)
Latitude
0.00001°
Longitude
112.99198°
Altitude
476.227 km
Speed
7.629 km/s
True Right ascension
03h 38m 30s
True Declination
0° 00' 00"
Sunlit
Object was in daylight at TLE epoch
Visualization TLE readout
Latitude
42.24834°
Longitude
-114.55171°
Altitude
478.483 km
Speed
7.632 km/s
Apparent Right ascension
07h 51m 17s
Apparent Declination
9° 49' 36"
Sunlit
Object is in daylight
Visualization observer readout
Local Sidereal Time
14:47:15
Azimuth
286.531° WNW
Elevation
-4.199°
Doppler factor
1
Orbital elements
Apogee altitude
476.504 km
Perigee altitude
474.577 km
Semi-major axis
6,853.678 km
Eccentricity
0.0001406
Inclination
53.1612°
RAAN
54.6266°
Arg. of periapsis
92.6467°
True anomaly
267.4534°
Mean anomaly
267.4695°
Eccentric anomaly
267.46145°
Mean motion
3.82523 °/min
BSTAR
0.000095149
Orbital period
94.11 mins
Loading maneuver chart data...
Loading SW <> Apogee altitude chart data...
Loading historical data...
Loading historical data...
Loading historical data...
Loading historical data...
Loading historical data...
Loading historical data...
Loading historical data...

STARLINK-32175 Visibility forecast

Observer location: undefined°, undefined°

Span
Click to sort rows by Start time (UTC) header in descending order
Start Az.
Max El. time (UTC)
Max El. Az.
Max El.
End time (UTC)
End Az.
4 mins2025-05-09 20:22:23.616Z166.99° S2025-05-09 20:24:23.616Z126.367° SE18.959°2025-05-09 20:26:23.616Z87.843° E
5 mins2025-05-09 22:00:23.616Z266.76° W2025-05-09 22:02:23.616Z349.557° N34.856°2025-05-09 22:05:23.616Z39.968° NE
4 mins2025-05-10 02:57:23.616Z352.52° N2025-05-10 02:58:23.616Z15.108° NNE21.395°2025-05-10 03:01:23.616Z77.527° E
6 mins2025-05-10 04:34:23.616Z297.311° NW2025-05-10 04:37:23.616Z193.601° SSW37.39°2025-05-10 04:40:23.616Z146.953° SSE
|